Historique des stations

Station météo de Bazoches-les-Gallerandes

Altitude de la station : 134 m







Données météorologiques pour le 05/12/2021
Date
Heure
Températures Humidité Point de rosée Vitesse
du vent
Direction Rafales Windchill Pression Pluviométrie
Cumul
Date
Heure
Températures Humidité Point de rosée Vitesse
du vent
Direction Rafales Windchill Pression Pluviométrie
Cumul
05/12/2021 13:004.6 °C93 %3.6 °C8 km/hO18 km/h2.41004 hPa2.6 mm
05/12/2021 12:404.2 °C94 %3.3 °C8 km/hO15 km/h4.21004 hPa2.6 mm
05/12/2021 12:304.3 °C94 %3.4 °C8 km/hO21 km/h1.91004 hPa2.4 mm
05/12/2021 12:104.2 °C94 %3.3 °C7 km/hO18 km/h1.81004 hPa2.4 mm
05/12/2021 12:004.2 °C95 %3.4 °C7 km/hO15 km/h4.21004 hPa2.4 mm
05/12/2021 11:404.1 °C94 %3.2 °C7 km/hO23 km/h1.91004 hPa2.0 mm
05/12/2021 11:304.0 °C94 %3.1 °C6 km/hO16 km/h4.01004 hPa1.8 mm
05/12/2021 11:103.9 °C94 %3.0 °C5 km/hO16 km/h3.91004 hPa1.6 mm
05/12/2021 11:003.6 °C95 %2.9 °C5 km/hO13 km/h3.61004 hPa1.6 mm
05/12/2021 10:403.4 °C94 %2.6 °C5 km/h11 km/h3.41004 hPa1.4 mm
05/12/2021 10:303.4 °C95 %2.7 °C6 km/hOSO15 km/h3.41004 hPa0.8 mm
05/12/2021 10:103.2 °C95 %2.5 °C7 km/hOSO15 km/h3.21004 hPa0.8 mm
05/12/2021 10:002.9 °C95 %2.2 °C7 km/hOSO15 km/h2.91004 hPa0.8 mm
05/12/2021 09:402.8 °C95 %2.1 °C8 km/hOSO16 km/h0.51004 hPa0.8 mm
05/12/2021 09:302.7 °C95 %1.9 °C7 km/hOSO16 km/h0.41004 hPa0.6 mm
05/12/2021 09:102.6 °C95 %1.8 °C7 km/hOSO18 km/h2.61004 hPa0.2 mm
05/12/2021 09:002.5 °C94 %1.6 °C6 km/hOSO18 km/h0.11004 hPa0.2 mm
05/12/2021 08:402.4 °C94 %1.6 °C6 km/hOSO15 km/h2.41004 hPa0.2 mm
05/12/2021 08:302.3 °C94 %1.5 °C6 km/hOSO15 km/h2.31003 hPa0.2 mm
05/12/2021 08:102.4 °C94 %1.6 °C6 km/hOSO19 km/h2.41004 hPa0.2 mm
05/12/2021 08:002.4 °C94 %1.5 °C6 km/hOSO15 km/h2.41004 hPa0.2 mm
05/12/2021 07:402.3 °C94 %1.5 °C6 km/h15 km/h2.31004 hPa0.2 mm
05/12/2021 07:302.4 °C94 %1.6 °C5 km/hOSO18 km/h2.41003 hPa0.2 mm
05/12/2021 07:102.5 °C94 %1.6 °C5 km/hOSO15 km/h2.51003 hPa0.2 mm
05/12/2021 07:002.6 °C94 %1.7 °C5 km/hOSO13 km/h2.61003 hPa0.2 mm
05/12/2021 06:402.7 °C94 %1.8 °C6 km/h13 km/h2.71003 hPa0.2 mm
05/12/2021 06:302.8 °C94 %1.9 °C6 km/hO15 km/h2.81004 hPa0.2 mm
05/12/2021 06:102.9 °C93 %1.9 °C6 km/hO15 km/h2.91004 hPa0.2 mm
05/12/2021 06:003.2 °C93 %2.1 °C6 km/hO18 km/h3.21003 hPa0.2 mm
05/12/2021 05:403.2 °C93 %2.2 °C6 km/hO13 km/h3.21003 hPa0.2 mm
05/12/2021 05:303.4 °C93 %2.4 °C5 km/hO18 km/h3.41003 hPa0.2 mm
05/12/2021 05:003.6 °C94 %2.7 °C5 km/hO15 km/h3.61004 hPa0.2 mm
05/12/2021 04:403.5 °C94 %2.6 °C6 km/hO11 km/h3.51004 hPa0.2 mm
05/12/2021 04:303.4 °C94 %2.6 °C6 km/hOSO15 km/h3.41004 hPa0.2 mm
05/12/2021 04:103.4 °C94 %2.5 °C6 km/hOSO11 km/h3.41004 hPa0.2 mm
05/12/2021 04:003.3 °C94 %2.4 °C7 km/hOSO16 km/h3.31003 hPa0.2 mm
05/12/2021 03:403.3 °C94 %2.5 °C8 km/hOSO19 km/h3.31004 hPa0.2 mm
05/12/2021 03:303.4 °C94 %2.5 °C8 km/hOSO15 km/h3.41004 hPa0.2 mm
05/12/2021 03:103.6 °C93 %2.6 °C9 km/hOSO19 km/h1.11004 hPa0.2 mm
05/12/2021 03:003.8 °C93 %2.8 °C10 km/hOSO19 km/h1.21004 hPa0.2 mm
05/12/2021 02:403.9 °C93 %2.9 °C11 km/hOSO19 km/h1.41004 hPa0.2 mm
05/12/2021 02:303.9 °C93 %2.9 °C11 km/hOSO19 km/h1.11004 hPa0.0 mm
05/12/2021 02:103.8 °C93 %2.8 °C11 km/hSO21 km/h0.71004 hPa0.0 mm
05/12/2021 02:003.7 °C93 %2.6 °C10 km/hSO23 km/h0.51004 hPa0.0 mm
05/12/2021 01:403.6 °C93 %2.5 °C10 km/hSO21 km/h0.71004 hPa0.0 mm
05/12/2021 01:303.6 °C93 %2.6 °C10 km/hSO18 km/h0.81004 hPa0.0 mm
05/12/2021 01:103.7 °C93 %2.6 °C11 km/h18 km/h1.21005 hPa0.0 mm
05/12/2021 00:403.9 °C93 %2.9 °C11 km/hSO24 km/h1.11005 hPa2.0 mm
05/12/2021 00:303.9 °C92 %2.8 °C11 km/hSO19 km/h1.11005 hPa2.0 mm
05/12/2021 00:104.0 °C92 %2.8 °C11 km/hSO21 km/h1.31006 hPa2.0 mm
05/12/2021 00:003.9 °C92 %2.8 °C11 km/hSO24 km/h0.91006 hPa2.0 mm


Minima :

Température : 2.3 °C
Humidité : 92 %
Point de rosée : 1.5 °C
Vent moyen : 5 km/h
Windchill : 0.1
Pression atm. : 1003 hPa
Maxima :

Température : 4.6 °C
Humidité : 95 %
Point de rosée : 3.6 °C
Vent moyen : 11 km/h
Windchill : 4.2
Pression atm. : 1006 hPa
Rafales max : 24 km/h
Cumul de pluie sur 24H : 2.6 mm

Bazoches les gallerandes est une commune du département Loiret (45).
La station météorologique du réseau de l'association la plus proche de Bazoches-les-Gallerandes est celle de Boisseaux



Icône Facebook Association Météo Centre Icône Twitter Association Météo Centre Icône Chaîne Youtube Association Météo Centre Icône contact Association Météo Centre Icône Insta Association Météo Centre